Miscellaneous Local Product
Issued by NWS Hastings, NE

Home | Current Version | Previous Version | Text Only | Print | Product List | Glossary On
Versions: 1 2 3 4 5 6 7 8 9 10 11 12 13 14 15 16 17 18 19 20 21 22 23 24 25 26 27 28 29 30 31 32 33 34 35 36 37 38 39 40 41 42 43 44 45 46 47 48 49 50
000
AXUS43 KGID 210502
MISGRI

GID CWA HOURLY WEATHER ROUNDUP
NATIONAL WEATHER SERVICE HASTINGS NE
1200 AM CDT SAT OCT 21 2017

NOTE: "FAIR" INDICATES FEW OR NO CLOUDS BELOW 12,000 FEET WITH NO
SIGNIFICANT WEATHER AND/OR OBSTRUCTIONS TO VISIBILITY.

...SOUTH CENTRAL NEBRASKA...

CITY           SKY/WX    TMP DP  RH WIND       PRES   REMARKS
GRAND ISLAND   CLOUDY    67  59  75 S20G31    29.58F
KEARNEY        CLEAR     66  59  78 S24G33    29.54F
HASTINGS       CLOUDY    67  57  70 S18G29    29.59F
ORD            CLEAR     66  58  75 S18G29    29.52F
YORK           CLOUDY    66  57  72 S24       29.62F
AURORA         CLOUDY    67  57  69 S21G28    29.60F
LEXINGTON      CLEAR     66  57  74 S21G26    29.51F
HOLDREGE       CLEAR     65  59  78 S21G29    29.54F
HEBRON         CLOUDY    69  58  69 S22       29.64F

...NEBRASKA PANHANDLE...

CITY           SKY/WX    TMP DP  RH WIND       PRES   REMARKS
CHADRON        CLOUDY    69  31  24 W24G41    29.50R
ALLIANCE       CLOUDY    63  40  42 W16G26    29.49R
SCOTTSBLUFF    CLOUDY    60  35  39 W13       29.54R
SIDNEY         CLOUDY    53  39  59 S3        29.47F

...WESTERN AND NORTH CENTRAL NEBRASKA...

CITY           SKY/WX    TMP DP  RH WIND       PRES   REMARKS
VALENTINE      CLOUDY    66  53  63 S18G28    29.43F
AINSWORTH      CLOUDY    64  55  74 S16       29.47F
ONEILL         CLEAR     66  59  76 S21G32    29.52R
BROKEN BOW     CLEAR     65  57  75 S17G25    29.51F
IMPERIAL       CLEAR     61  51  70 S10       29.46S
NORTH PLATTE   CLEAR     65  56  72 SE15      29.47F
MCCOOK         CLEAR     67  57  70 S21G32    29.47F

...EASTERN NEBRASKA...

CITY           SKY/WX    TMP DP  RH WIND       PRES   REMARKS
NORFOLK        CLEAR     67  57  70 S23G35    29.59F
SO SIOUX CITY  PTCLDY    68  58  70 S21G38    29.63F
TEKAMAH        CLEAR     67  56  67 S18G25    29.67F
COLUMBUS       CLOUDY    67  57  70 S16       29.62F
ALBION         MOCLDY    69  58  69 S20G28    29.58F
OMAHA EPPLEY   PTCLDY    68  56  65 S24G30    29.71S
OFFUTT AFB     PTCLDY    66  56  70 SE16G23   29.71F
MILLARD        PTCLDY    68  58  72 SE13G20   29.70F
LINCOLN        PTCLDY    68  59  73 S22G29    29.66F
NEBRASKA CITY  CLOUDY    66  59  77 S18G26    29.73F
BEATRICE       CLOUDY    68  60  75 S14G26    29.68F
FALLS CITY     CLOUDY    67  57  70 S15G25    29.76F

...NORTHERN KANSAS...

CITY           SKY/WX    TMP DP  RH WIND       PRES   REMARKS
GOODLAND       CLEAR     57  44  62 S14       29.51S
HILL CITY      CLEAR     69  59  70 S24G39    29.54F
NORTON         CLEAR     68  55  64 S21G30    29.51F
PHILLIPSBURG   CLEAR     70  57  64 S23G33    29.55F
SMITH CENTER   CLEAR     68  59  73 S26G33    29.59F
HAYS           CLEAR     68  60  75 S25G36    29.59S
RUSSELL        CLEAR     69  63  81 S32G44    29.60F
CONCORDIA      MOCLDY    70  61  73 S26G43    29.65F
SALINA         CLEAR     73  63  70 S29G46    29.68F
TOPEKA         CLOUDY    68  59  73 S17G30    29.80R



USA.gov is the U.S. government's official web portal to all federal, state and local government web resources and services.